Volver al catálogo

STARLINK-6029

ActivoComunicacionesVLEO
NORAD 56803·PAYLOAD·🇺🇸 United States

Lanzado May 31, 2023 desde Vandenberg Space Force Base

Loading…

Próximos Pases (próximas 24 horas)

TLE

ActualizadoSource: CelesTrak SupGP

Época: Sep 14, 2026, 22:18 UTC

1 56803C 23078AN  26257.92965278  .00004643  00000+0  38899-3 0  2575
2 56803  70.0013 227.2848 0003508 268.2049 219.1267 14.98339888    15

Sigue STARLINK-6029 en tiempo real con AllMySat

Download on the App Store